| time (UTC) | temp F | wind direction | speed MPH | gust MPH | rain 1hr in | rain 24hr in | rain mn in | humidity % | barometer mb |
| 20260505011115 | 65 | 220 | 0.0 | 0.0 | 0.00 | 0.00 | 0.00 | 59 | 963.2 |
| 20260505010616 | 65 | 220 | 0.0 | 0.0 | 0.00 | 0.00 | 0.00 | 60 | 963.1 |
| 20260505010113 | 65 | 216 | 0.0 | 0.0 | 0.00 | 0.00 | 0.00 | 58 | 962.9 |
| 20260505005612 | 65 | 216 | 0.0 | 0.0 | 0.00 | 0.00 | 0.00 | 58 | 962.9 |
| 20260505005110 | 65 | 267 | 0.0 | 0.0 | 0.00 | 0.00 | 0.00 | 57 | 962.9 |
| 20260505004608 | 66 | 267 | 0.0 | 0.0 | 0.00 | 0.00 | 0.00 | 56 | 962.9 |
| 20260505004102 | 66 | 267 | 0.0 | 0.0 | 0.00 | 0.00 | 0.00 | 55 | 962.9 |
| 20260505003828 | 67 | 267 | 0.0 | 0.0 | 0.00 | 0.00 | 0.00 | 54 | 962.8 |
| 20260505003050 | 67 | 267 | 0.0 | 0.0 | 0.00 | 0.00 | 0.00 | 54 | 962.8 |
| 20260505003040 | 67 | 267 | 0.0 | 0.0 | 0.00 | 0.00 | 0.00 | 54 | 962.8 |
| 20260505002256 | 67 | 266 | 0.0 | 1.0 | 0.00 | 0.00 | 0.00 | 53 | 962.7 |
| 20260505001532 | 67 | 306 | 0.0 | 1.0 | 0.00 | 0.00 | 0.00 | 54 | 962.7 |
| 20260505001026 | 68 | 288 | 0.0 | 0.0 | 0.00 | 0.00 | 0.00 | 52 | 962.6 |
| 20260505000520 | 68 | 239 | 0.0 | 1.0 | 0.00 | 0.00 | 0.00 | 53 | 962.6 |
| 20260505000014 | 69 | 273 | 0.0 | 3.0 | 0.00 | 0.00 | 0.00 | 52 | 962.5 |
| 20260504235508 | 69 | 261 | 0.0 | 3.0 | 0.00 | 0.00 | 0.00 | 52 | 962.4 |
| 20260504235002 | 70 | 210 | 0.0 | 2.0 | 0.00 | 0.00 | 0.00 | 51 | 962.4 |
| 20260504234456 | 70 | 297 | 0.0 | 3.0 | 0.00 | 0.00 | 0.00 | 50 | 962.3 |
| 20260504233950 | 71 | 216 | 0.0 | 3.0 | 0.00 | 0.00 | 0.00 | 49 | 962.3 |
| 20260504233443 | 71 | 203 | 0.0 | 2.0 | 0.00 | 0.00 | 0.00 | 48 | 962.2 |
| 20260504232938 | 71 | 202 | 0.0 | 3.0 | 0.00 | 0.00 | 0.00 | 50 | 962.2 |
| 20260504232700 | 72 | 217 | 0.0 | 3.0 | 0.00 | 0.00 | 0.00 | 49 | 962.1 |
| 20260504231935 | 72 | 196 | 0.0 | 3.0 | 0.00 | 0.00 | 0.00 | 47 | 962.1 |
| 20260504231434 | 74 | 210 | 0.0 | 4.0 | 0.00 | 0.00 | 0.00 | 46 | 962.0 |
| 20260504230938 | 74 | 227 | 1.0 | 4.0 | 0.00 | 0.00 | 0.00 | 46 | 962.0 |
| 20260504230434 | 73 | 165 | 1.0 | 7.0 | 0.00 | 0.00 | 0.00 | 45 | 962.0 |
| 20260504225933 | 72 | 194 | 1.0 | 7.0 | 0.00 | 0.00 | 0.00 | 46 | 962.0 |
| 20260504225434 | 73 | 165 | 1.0 | 4.0 | 0.00 | 0.00 | 0.00 | 46 | 961.9 |
| 20260504224932 | 74 | 239 | 1.0 | 5.0 | 0.00 | 0.00 | 0.00 | 45 | 962.0 |
| 20260504224431 | 74 | 194 | 1.0 | 5.0 | 0.00 | 0.00 | 0.00 | 43 | 962.0 |
| 20260504224156 | 74 | 196 | 1.0 | 5.0 | 0.00 | 0.00 | 0.00 | 44 | 961.9 |
| 20260504223430 | 73 | 234 | 1.0 | 4.0 | 0.00 | 0.00 | 0.00 | 47 | 961.9 |
| 20260504222927 | 72 | 40 | 1.0 | 5.0 | 0.00 | 0.00 | 0.00 | 46 | 961.9 |
| 20260504222428 | 72 | 219 | 1.0 | 6.0 | 0.00 | 0.00 | 0.00 | 45 | 961.9 |
| 20260504222151 | 72 | 140 | 1.0 | 8.0 | 0.00 | 0.00 | 0.00 | 46 | 961.9 |
| 20260504221431 | 73 | 175 | 1.0 | 8.0 | 0.00 | 0.00 | 0.00 | 44 | 961.8 |
| 20260504221154 | 74 | 202 | 2.0 | 7.0 | 0.00 | 0.00 | 0.00 | 44 | 961.8 |
| 20260504220424 | 73 | 204 | 2.0 | 7.0 | 0.00 | 0.00 | 0.00 | 42 | 961.9 |
| 20260504215921 | 74 | 202 | 1.0 | 5.0 | 0.00 | 0.00 | 0.00 | 41 | 961.9 |
| 20260504215422 | 76 | 211 | 1.0 | 5.0 | 0.00 | 0.00 | 0.00 | 40 | 962.0 |
| 20260504214920 | 76 | 169 | 2.0 | 5.0 | 0.00 | 0.00 | 0.00 | 41 | 961.9 |
| 20260504214420 | 76 | 174 | 1.0 | 5.0 | 0.00 | 0.00 | 0.00 | 40 | 962.0 |
| 20260504214136 | 76 | 286 | 1.0 | 5.0 | 0.00 | 0.00 | 0.00 | 41 | 961.9 |
| 20260504213640 | 76 | 165 | 2.0 | 9.0 | 0.00 | 0.00 | 0.00 | 40 | 961.9 |
| 20260504212919 | 75 | 175 | 1.0 | 9.0 | 0.00 | 0.00 | 0.00 | 39 | 961.8 |
| 20260504212419 | 75 | 223 | 1.0 | 7.0 | 0.00 | 0.00 | 0.00 | 39 | 961.8 |
| 20260504211920 | 76 | 217 | 1.0 | 7.0 | 0.00 | 0.00 | 0.00 | 38 | 961.9 |
| 20260504211419 | 77 | 212 | 1.0 | 4.0 | 0.00 | 0.00 | 0.00 | 37 | 961.9 |
| 20260504210917 | 77 | 192 | 1.0 | 3.0 | 0.00 | 0.00 | 0.00 | 38 | 961.9 |
| 20260504210416 | 77 | 263 | 1.0 | 3.0 | 0.00 | 0.00 | 0.00 | 39 | 961.9 |
| 20260504205918 | 77 | 146 | 1.0 | 4.0 | 0.00 | 0.00 | 0.00 | 39 | 962.0 |
| 20260504205416 | 76 | 344 | 1.0 | 6.0 | 0.00 | 0.00 | 0.00 | 38 | 962.0 |
| 20260504205134 | 76 | 190 | 2.0 | 6.0 | 0.00 | 0.00 | 0.00 | 39 | 962.1 |
| 20260504204414 | 76 | 195 | 2.0 | 6.0 | 0.00 | 0.00 | 0.00 | 39 | 962.0 |
| 20260504203917 | 76 | 215 | 2.0 | 8.0 | 0.00 | 0.00 | 0.00 | 40 | 962.1 |
| 20260504203411 | 75 | 306 | 2.0 | 8.0 | 0.00 | 0.00 | 0.00 | 36 | 962.1 |
| 20260504202904 | 76 | 196 | 3.0 | 10.0 | 0.00 | 0.00 | 0.00 | 38 | 962.2 |
| 20260504202357 | 76 | 222 | 3.0 | 10.0 | 0.00 | 0.00 | 0.00 | 36 | 962.1 |
| 20260504201857 | 76 | 228 | 2.0 | 8.0 | 0.00 | 0.00 | 0.00 | 37 | 962.1 |
| 20260504201358 | 76 | 217 | 2.0 | 7.0 | 0.00 | 0.00 | 0.00 | 36 | 962.2 |
| 20260504200857 | 75 | 215 | 2.0 | 8.0 | 0.00 | 0.00 | 0.00 | 36 | 962.3 |
| 20260504200356 | 75 | 209 | 2.0 | 8.0 | 0.00 | 0.00 | 0.00 | 34 | 962.4 |
| 20260504195857 | 75 | 215 | 2.0 | 10.0 | 0.00 | 0.00 | 0.00 | 35 | 962.4 |
| 20260504195357 | 75 | 328 | 2.0 | 10.0 | 0.00 | 0.00 | 0.00 | 34 | 962.6 |
| 20260504194858 | 76 | 202 | 1.0 | 6.0 | 0.00 | 0.00 | 0.00 | 34 | 962.7 |
| 20260504194617 | 75 | 251 | 2.0 | 8.0 | 0.00 | 0.00 | 0.00 | 35 | 962.8 |
| 20260504193858 | 75 | 218 | 2.0 | 8.0 | 0.00 | 0.00 | 0.00 | 35 | 962.8 |
| 20260504193352 | 75 | 192 | 2.0 | 7.0 | 0.00 | 0.00 | 0.00 | 34 | 962.8 |
| 20260504192853 | 76 | 299 | 2.0 | 10.0 | 0.00 | 0.00 | 0.00 | 34 | 962.9 |
| 20260504192624 | 76 | 235 | 2.0 | 10.0 | 0.00 | 0.00 | 0.00 | 35 | 963.0 |
| 20260504191854 | 76 | 251 | 2.0 | 10.0 | 0.00 | 0.00 | 0.00 | 33 | 963.0 |
| 20260504191353 | 75 | 248 | 2.0 | 6.0 | 0.00 | 0.00 | 0.00 | 37 | 963.1 |
| 20260504190854 | 75 | 199 | 2.0 | 7.0 | 0.00 | 0.00 | 0.00 | 36 | 963.2 |
| 20260504190353 | 75 | 222 | 2.0 | 7.0 | 0.00 | 0.00 | 0.00 | 33 | 963.3 |
| 20260504185854 | 75 | 244 | 2.0 | 7.0 | 0.00 | 0.00 | 0.00 | 35 | 963.3 |
| 20260504185353 | 76 | 208 | 2.0 | 6.0 | 0.00 | 0.00 | 0.00 | 33 | 963.5 |
| 20260504184853 | 75 | 163 | 2.0 | 6.0 | 0.00 | 0.00 | 0.00 | 39 | 963.4 |
| 20260504184353 | 75 | 211 | 2.0 | 7.0 | 0.00 | 0.00 | 0.00 | 39 | 963.5 |
| 20260504183853 | 74 | 94 | 2.0 | 7.0 | 0.00 | 0.00 | 0.00 | 37 | 963.5 |
| 20260504183352 | 74 | 225 | 2.0 | 8.0 | 0.00 | 0.00 | 0.00 | 39 | 963.7 |
| 20260504182853 | 74 | 348 | 2.0 | 9.0 | 0.00 | 0.00 | 0.00 | 39 | 963.8 |
| 20260504182618 | 73 | 227 | 2.0 | 9.0 | 0.00 | 0.00 | 0.00 | 41 | 963.8 |
| 20260504181854 | 73 | 211 | 2.0 | 9.0 | 0.00 | 0.00 | 0.00 | 38 | 963.9 |
| 20260504181353 | 74 | 236 | 2.0 | 9.0 | 0.00 | 0.00 | 0.00 | 37 | 964.0 |
| 20260504180853 | 74 | 203 | 2.0 | 5.0 | 0.00 | 0.00 | 0.00 | 36 | 964.0 |
| 20260504180353 | 74 | 298 | 2.0 | 7.0 | 0.00 | 0.00 | 0.00 | 38 | 964.0 |
| 20260504175852 | 74 | 208 | 2.0 | 10.0 | 0.00 | 0.00 | 0.00 | 39 | 964.0 |
| 20260504175351 | 73 | 169 | 2.0 | 10.0 | 0.00 | 0.00 | 0.00 | 42 | 964.1 |
| 20260504174850 | 73 | 211 | 2.0 | 8.0 | 0.00 | 0.00 | 0.00 | 42 | 964.2 |
| 20260504174351 | 72 | 210 | 2.0 | 8.0 | 0.00 | 0.00 | 0.00 | 42 | 964.1 |
| 20260504173849 | 73 | 233 | 2.0 | 6.0 | 0.00 | 0.00 | 0.00 | 42 | 964.3 |
| 20260504173350 | 73 | 166 | 1.0 | 6.0 | 0.00 | 0.00 | 0.00 | 43 | 964.3 |
| 20260504172849 | 72 | 194 | 1.0 | 6.0 | 0.00 | 0.00 | 0.00 | 43 | 964.5 |
| 20260504172348 | 72 | 191 | 2.0 | 6.0 | 0.00 | 0.00 | 0.00 | 44 | 964.6 |
| 20260504172107 | 71 | 142 | 2.0 | 6.0 | 0.00 | 0.00 | 0.00 | 44 | 964.6 |
| 20260504171607 | 72 | 218 | 1.0 | 4.0 | 0.00 | 0.00 | 0.00 | 43 | 964.8 |
| 20260504170844 | 71 | 205 | 2.0 | 7.0 | 0.00 | 0.00 | 0.00 | 42 | 964.8 |
| 20260504170605 | 71 | 164 | 1.0 | 7.0 | 0.00 | 0.00 | 0.00 | 44 | 964.9 |
| 20260504151139 | 65 | 248 | 1.0 | 5.0 | 0.00 | 0.00 | 0.00 | 51 | 966.4 |
| 20260504150633 | 64 | 240 | 1.0 | 3.0 | 0.00 | 0.00 | 0.00 | 50 | 966.4 |
| 20260504150351 | 64 | 219 | 1.0 | 4.0 | 0.00 | 0.00 | 0.00 | 51 | 966.5 |
| 20260504141121 | 60 | 197 | 1.0 | 5.0 | 0.00 | 0.00 | 0.00 | 51 | 966.8 |
| 20260504140621 | 59 | 184 | 1.0 | 8.0 | 0.00 | 0.00 | 0.00 | 55 | 966.7 |
| 20260504140120 | 59 | 227 | 1.0 | 8.0 | 0.00 | 0.00 | 0.00 | 54 | 966.8 |
| 20260504130545 | 55 | 198 | 0.0 | 2.0 | 0.00 | 0.00 | 0.00 | 56 | 967.0 |
| 20260504110510 | 47 | 237 | 0.0 | 1.0 | 0.00 | 0.00 | 0.00 | 63 | 967.2 |
| 20260504110241 | 47 | 267 | 0.0 | 2.0 | 0.00 | 0.00 | 0.00 | 64 | 967.2 |
| 20260504100509 | 45 | 144 | 0.0 | 0.0 | 0.00 | 0.00 | 0.00 | 67 | 967.3 |
| 20260504081937 | 40 | 296 | 0.0 | 0.0 | 0.00 | 0.00 | 0.00 | 78 | 967.7 |
| 20260504081652 | 39 | 296 | 0.0 | 0.0 | 0.00 | 0.00 | 0.00 | 79 | 967.7 |
| 20260504081407 | 39 | 296 | 0.0 | 0.0 | 0.00 | 0.00 | 0.00 | 79 | 967.6 |
| 20260504080652 | 40 | 296 | 0.0 | 0.0 | 0.00 | 0.00 | 0.00 | 78 | 967.6 |
| 20260504050409 | 40 | 296 | 0.0 | 0.0 | 0.00 | 0.00 | 0.00 | 79 | 968.5 |
| 20260504045901 | 40 | 296 | 0.0 | 0.0 | 0.00 | 0.00 | 0.00 | 78 | 968.5 |
| 20260504045354 | 40 | 296 | 0.0 | 0.0 | 0.00 | 0.00 | 0.00 | 78 | 968.5 |
| 20260504044848 | 41 | 296 | 0.0 | 0.0 | 0.00 | 0.00 | 0.00 | 77 | 968.5 |
| 20260504044342 | 41 | 296 | 0.0 | 0.0 | 0.00 | 0.00 | 0.00 | 77 | 968.5 |
| 20260504043835 | 41 | 296 | 0.0 | 0.0 | 0.00 | 0.00 | 0.00 | 76 | 968.5 |
| 20260504043330 | 41 | 296 | 0.0 | 0.0 | 0.00 | 0.00 | 0.00 | 76 | 968.5 |
| 20260504042824 | 41 | 296 | 0.0 | 0.0 | 0.00 | 0.00 | 0.00 | 75 | 968.5 |
| 20260504042318 | 41 | 296 | 0.0 | 0.0 | 0.00 | 0.00 | 0.00 | 74 | 968.4 |
| 20260504042033 | 42 | 296 | 0.0 | 0.0 | 0.00 | 0.00 | 0.00 | 74 | 968.5 |
| 20260504041312 | 42 | 296 | 0.0 | 0.0 | 0.00 | 0.00 | 0.00 | 74 | 968.4 |
| 20260504040812 | 42 | 295 | 0.0 | 0.0 | 0.00 | 0.00 | 0.00 | 75 | 968.5 |
| 20260504040312 | 42 | 296 | 0.0 | 0.0 | 0.00 | 0.00 | 0.00 | 75 | 968.5 |
| 20260504035810 | 41 | 296 | 0.0 | 0.0 | 0.00 | 0.00 | 0.00 | 76 | 968.4 |
| 20260504035309 | 41 | 295 | 0.0 | 0.0 | 0.00 | 0.00 | 0.00 | 76 | 968.4 |
| 20260504034807 | 41 | 296 | 0.0 | 0.0 | 0.00 | 0.00 | 0.00 | 76 | 968.3 |
| 20260504034304 | 41 | 296 | 0.0 | 0.0 | 0.00 | 0.00 | 0.00 | 77 | 968.3 |
| 20260504033804 | 41 | 295 | 0.0 | 0.0 | 0.00 | 0.00 | 0.00 | 77 | 968.4 |
| 20260504033304 | 41 | 296 | 0.0 | 0.0 | 0.00 | 0.00 | 0.00 | 77 | 968.4 |
| 20260504032803 | 42 | 296 | 0.0 | 0.0 | 0.00 | 0.00 | 0.00 | 77 | 968.4 |
| 20260504032259 | 42 | 296 | 0.0 | 0.0 | 0.00 | 0.00 | 0.00 | 75 | 968.4 |
| 20260504031800 | 42 | 295 | 0.0 | 0.0 | 0.00 | 0.00 | 0.00 | 76 | 968.3 |
| 20260504031301 | 42 | 296 | 0.0 | 0.0 | 0.00 | 0.00 | 0.00 | 75 | 968.3 |
| 20260504030800 | 43 | 296 | 0.0 | 0.0 | 0.00 | 0.00 | 0.00 | 75 | 968.3 |
| 20260504030258 | 43 | 296 | 0.0 | 0.0 | 0.00 | 0.00 | 0.00 | 75 | 968.3 |
| 20260504025758 | 43 | 296 | 0.0 | 0.0 | 0.00 | 0.00 | 0.00 | 75 | 968.3 |
| 20260504025256 | 43 | 295 | 0.0 | 0.0 | 0.00 | 0.00 | 0.00 | 73 | 968.4 |
| 20260504025019 | 43 | 296 | 0.0 | 0.0 | 0.00 | 0.00 | 0.00 | 72 | 968.4 |
| 20260504024250 | 43 | 296 | 0.0 | 0.0 | 0.00 | 0.00 | 0.00 | 72 | 968.4 |
| 20260504023744 | 43 | 296 | 0.0 | 0.0 | 0.00 | 0.00 | 0.00 | 72 | 968.4 |
| 20260504023238 | 43 | 296 | 0.0 | 0.0 | 0.00 | 0.00 | 0.00 | 72 | 968.4 |
| 20260504022732 | 43 | 296 | 0.0 | 0.0 | 0.00 | 0.00 | 0.00 | 72 | 968.5 |
| 20260504022226 | 43 | 296 | 0.0 | 0.0 | 0.00 | 0.00 | 0.00 | 72 | 968.4 |
| 20260504021720 | 44 | 296 | 0.0 | 0.0 | 0.00 | 0.00 | 0.00 | 71 | 968.4 |
| 20260504021215 | 44 | 296 | 0.0 | 0.0 | 0.00 | 0.00 | 0.00 | 70 | 968.4 |
| 20260504020708 | 44 | 296 | 0.0 | 0.0 | 0.00 | 0.00 | 0.00 | 70 | 968.4 |
| 20260504020202 | 44 | 296 | 0.0 | 0.0 | 0.00 | 0.00 | 0.00 | 70 | 968.4 |
| 20260504015656 | 44 | 295 | 0.0 | 0.0 | 0.00 | 0.00 | 0.00 | 69 | 968.4 |
| 20260504015150 | 44 | 296 | 0.0 | 0.0 | 0.00 | 0.00 | 0.00 | 69 | 968.3 |
| 20260504014644 | 44 | 295 | 0.0 | 0.0 | 0.00 | 0.00 | 0.00 | 68 | 968.3 |
| 20260504014137 | 45 | 296 | 0.0 | 0.0 | 0.00 | 0.00 | 0.00 | 69 | 968.3 |
| 20260504013632 | 45 | 296 | 0.0 | 0.0 | 0.00 | 0.00 | 0.00 | 68 | 968.3 |
| 20260504013126 | 45 | 296 | 0.0 | 0.0 | 0.00 | 0.00 | 0.00 | 67 | 968.3 |
| 20260504012846 | 46 | 296 | 0.0 | 0.0 | 0.00 | 0.00 | 0.00 | 66 | 968.3 |
| 20260504012114 | 46 | 296 | 0.0 | 0.0 | 0.00 | 0.00 | 0.00 | 65 | 968.2 |
| 20260504011607 | 46 | 296 | 0.0 | 0.0 | 0.00 | 0.00 | 0.00 | 64 | 968.2 |